Regional Weather Roundup
Issued by NWS

Home | Current Version | Previous Version | Text Only | Print | Product List | Glossary On
Versions: 1 2 3 4 5 6 7 8 9 10 11 12 13 14 15 16 17 18 19 20 21 22 23 24 25 26 27 28 29 30 31 32 33 34 35 36 37 38 39 40 41 42 43 44 45 46 47 48 49 50
000
ASCA42 TJSJ 290510
RWRPR
PUERTO RICO/U.S. VIRGIN ISLANDS HOURLY WEATHER ROUNDUP
NATIONAL WEATHER SERVICE SAN JUAN PR
100 AM AST THU JUN 29 2017

PRZ001>002-007>008-010-290600-
PUERTO RICO

CITY           SKY/WX    TMP DP  RH WIND       PRES   REMARKS
SAN JUAN LMM   PTCLDY    82  73  74 E13       30.02F
PONCE          CLEAR     79  70  73 CALM      30.03F
CEIBA          MOCLDY    81  75  83 NE12      30.04F
$$

VIZ001>002-290600-
U.S. VIRGIN ISLANDS

CITY           SKY/WX    TMP DP  RH WIND       PRES   REMARKS
CHARLOTTE AMA  CLEAR     81  73  78 NE7       30.01F
CHRISTIANSTED  PTCLDY    82  73  74 NE13      30.00F
$$

HOURLY WEATHER ROUNDUP FOR THE NEWS MEDIA

CITY           SKY/WX    TMP DP  RH WIND       PRES   REMARKS
ORLANDO        MOCLDY    79  76  90 E3        30.09S
NEW YORK       CLOUDY    69  57  65 SW13      30.14S
NEWARK         MOCLDY    70  51  51 SW10      30.12S
CHICAGO        TSTM      66  64  93 N5G26     29.85R VSB 1/2
HARTFORD       CLOUDY    62  58  86 SW3       30.11S
BOSTON         PTCLDY    66  51  58 SW12      30.09R
DALLAS         CLEAR     82  70  66 SE13      29.87S
PHILADELPHIA   MOCLDY    69  57  65 S9        30.16R
LOS ANGELES    PTCLDY    64  60  87 W6        29.90R
WASHINGTON DC  MOCLDY    67  53  61 S7        30.15R


USA.gov is the U.S. government's official web portal to all federal, state and local government web resources and services.